Location: Poughquag
(41.6090°N, 73.6820°W)
Time: 03:41:51
(UTC-04:00)

Transit 2A Rocket - Pass Details

Date: 05 June 2020
Orbit: 584 x 919 km, 66.7° (Epoch: 06 July)

Event Time Altitude Azimuth Distance (km) Brightness Sun altitude
Rises 08:24:09 0° 313° (NW) 3,550 8.1 31.5°
Reaches altitude 10° 08:27:35 10° 294° (WNW) 2,615 7.4 32.1°
Maximum altitude 08:31:18 17° 257° (WSW) 2,153 7.0 32.8°
Drops below altitude 10° 08:34:58 10° 219° (SW) 2,582 7.5 33.5°
Sets 08:38:21 0° 200° (SSW) 3,484 8.2 34.1°
